Time,TemperatureF,DewpointF,PressureIn,WindDirection,WindDirectionDegrees,WindSpeedMPH,WindSpeedGustMPH,Humidity,HourlyPrecipIn,Conditions,Clouds,dailyrainin,SoftwareType,DateUTC
2013-08-14 00:00:00,95.0,83.2,28.64,NW,315,12.0,23.0,69,0.00,,,0.00,Weather View 32 v70,2013-08-14 04:00:00,
2013-08-14 00:05:00,95.0,83.2,28.64,NW,315,8.0,23.0,69,0.00,,,0.00,Weather View 32 v70,2013-08-14 04:05:00,
2013-08-14 00:10:00,95.0,82.7,28.64,NW,315,10.0,23.0,68,0.00,,,0.00,Weather View 32 v70,2013-08-14 04:10:00,
2013-08-14 00:15:00,95.0,83.2,28.65,NW,315,11.0,23.0,69,0.00,,,0.00,Weather View 32 v70,2013-08-14 04:15:00,
2013-08-14 00:16:00,95.0,83.2,28.65,NW,315,11.0,23.0,69,0.00,,,0.00,Weather View 32 v70,2013-08-14 04:16:00,
2013-08-14 00:20:00,95.0,82.7,28.65,NW,315,9.0,23.0,68,0.00,,,0.00,Weather View 32 v70,2013-08-14 04:20:00,
2013-08-14 00:25:00,94.0,81.8,28.65,NW,315,16.0,23.0,68,0.00,,,0.00,Weather View 32 v70,2013-08-14 04:25:00,
2013-08-14 00:35:00,94.0,80.8,28.67,NW,315,11.0,23.0,66,0.00,,,0.00,Weather View 32 v70,2013-08-14 04:35:00,
2013-08-14 00:40:00,94.0,80.8,28.67,NW,315,12.0,23.0,66,0.00,,,0.00,Weather View 32 v70,2013-08-14 04:40:00,
2013-08-14 00:45:00,94.0,80.8,28.67,NW,315,7.0,23.0,66,0.00,,,0.00,Weather View 32 v70,2013-08-14 04:45:00,
2013-08-14 00:50:00,94.0,81.3,28.67,NW,315,8.0,23.0,67,0.00,,,0.00,Weather View 32 v70,2013-08-14 04:50:00,
2013-08-14 00:55:00,94.0,81.3,28.67,NW,315,15.0,22.0,67,0.00,,,0.00,Weather View 32 v70,2013-08-14 04:55:00,
2013-08-14 01:00:00,93.0,79.9,28.67,NW,315,14.0,22.0,66,0.00,,,0.00,Weather View 32 v70,2013-08-14 05:00:00,
2013-08-14 01:05:00,93.0,80.4,28.67,NW,315,13.0,22.0,67,0.00,,,0.00,Weather View 32 v70,2013-08-14 05:05:00,
2013-08-14 01:10:00,93.0,81.7,28.67,West,270,5.0,22.0,70,0.00,,,0.00,Weather View 32 v70,2013-08-14 05:10:00,
2013-08-14 01:15:00,93.0,79.4,28.67,NW,315,15.0,22.0,65,0.00,,,0.00,Weather View 32 v70,2013-08-14 05:15:00,
2013-08-14 01:25:00,93.0,78.0,28.68,WNW,292,6.0,22.0,62,0.00,,,0.00,Weather View 32 v70,2013-08-14 05:25:00,
2013-08-14 01:30:00,93.0,77.0,28.68,NW,315,12.0,22.0,60,0.00,,,0.00,Weather View 32 v70,2013-08-14 05:30:00,
2013-08-14 01:35:00,93.0,77.5,28.68,NW,315,9.0,22.0,61,0.00,,,0.00,Weather View 32 v70,2013-08-14 05:35:00,
2013-08-14 01:40:00,93.0,77.5,28.68,WNW,292,10.0,22.0,61,0.00,,,0.00,Weather View 32 v70,2013-08-14 05:40:00,
2013-08-14 01:45:00,93.0,77.5,28.69,NW,315,11.0,22.0,61,0.00,,,0.00,Weather View 32 v70,2013-08-14 05:45:00,
2013-08-14 01:50:00,92.0,77.5,28.69,NW,315,9.0,22.0,63,0.00,,,0.00,Weather View 32 v70,2013-08-14 05:50:00,
2013-08-14 01:55:00,92.0,77.5,28.69,NW,315,8.0,22.0,63,0.00,,,0.00,Weather View 32 v70,2013-08-14 05:55:00,
2013-08-14 02:00:00,92.0,78.5,28.69,WNW,292,6.0,22.0,65,0.00,,,0.00,Weather View 32 v70,2013-08-14 06:00:00,
2013-08-14 02:05:00,92.0,78.9,28.69,West,270,4.0,22.0,66,0.00,,,0.00,Weather View 32 v70,2013-08-14 06:05:00,
2013-08-14 02:10:00,92.0,77.5,28.69,WNW,292,7.0,22.0,63,0.00,,,0.00,Weather View 32 v70,2013-08-14 06:10:00,
2013-08-14 02:15:00,92.0,78.5,28.69,NW,315,10.0,21.0,65,0.00,,,0.00,Weather View 32 v70,2013-08-14 06:15:00,
2013-08-14 02:20:00,92.0,78.9,28.70,WNW,292,5.0,21.0,66,0.00,,,0.00,Weather View 32 v70,2013-08-14 06:20:00,
2013-08-14 02:25:00,92.0,78.9,28.70,NW,315,7.0,21.0,66,0.00,,,0.00,Weather View 32 v70,2013-08-14 06:25:00,
2013-08-14 02:30:00,92.0,78.9,28.69,NW,315,7.0,21.0,66,0.00,,,0.00,Weather View 32 v70,2013-08-14 06:30:00,
2013-08-14 02:35:00,92.0,79.9,28.69,NW,315,7.0,19.0,68,0.00,,,0.00,Weather View 32 v70,2013-08-14 06:35:00,
2013-08-14 02:40:00,92.0,78.5,28.69,NW,315,10.0,17.0,65,0.00,,,0.00,Weather View 32 v70,2013-08-14 06:40:00,
2013-08-14 02:45:00,91.0,77.5,28.69,NW,315,14.0,20.0,65,0.00,,,0.00,Weather View 32 v70,2013-08-14 06:45:00,
2013-08-14 02:55:00,91.0,78.0,28.70,WNW,292,6.0,20.0,66,0.00,,,0.00,Weather View 32 v70,2013-08-14 06:55:00,
2013-08-14 03:00:00,91.0,77.5,28.70,NW,315,7.0,20.0,65,0.00,,,0.00,Weather View 32 v70,2013-08-14 07:00:00,
2013-08-14 03:05:00,91.0,77.5,28.70,WNW,292,6.0,20.0,65,0.00,,,0.00,Weather View 32 v70,2013-08-14 07:05:00,
2013-08-14 03:10:00,91.0,76.6,28.70,WNW,292,11.0,20.0,63,0.00,,,0.00,Weather View 32 v70,2013-08-14 07:10:00,
2013-08-14 03:18:00,91.0,77.5,28.71,WNW,292,3.0,20.0,65,0.00,,,0.00,Weather View 32 v70,2013-08-14 07:18:00,
2013-08-14 03:25:00,91.0,78.0,28.71,NW,315,5.0,20.0,66,0.00,,,0.00,Weather View 32 v70,2013-08-14 07:25:00,
2013-08-14 03:30:00,91.0,78.5,28.70,West,270,5.0,20.0,67,0.00,,,0.00,Weather View 32 v70,2013-08-14 07:30:00,
2013-08-14 03:35:00,91.0,78.0,28.70,NW,315,5.0,20.0,66,0.00,,,0.00,Weather View 32 v70,2013-08-14 07:35:00,
2013-08-14 03:40:00,91.0,78.0,28.71,NW,315,7.0,20.0,66,0.00,,,0.00,Weather View 32 v70,2013-08-14 07:40:00,
2013-08-14 03:45:00,91.0,78.9,28.71,West,270,6.0,20.0,68,0.00,,,0.00,Weather View 32 v70,2013-08-14 07:45:00,
2013-08-14 03:50:00,91.0,78.9,28.71,NW,315,6.0,17.0,68,0.00,,,0.00,Weather View 32 v70,2013-08-14 07:50:00,
2013-08-14 03:55:00,90.0,78.8,28.71,WNW,292,10.0,17.0,70,0.00,,,0.00,Weather View 32 v70,2013-08-14 07:55:00,
2013-08-14 04:00:00,90.0,78.8,28.70,West,270,7.0,17.0,70,0.00,,,0.00,Weather View 32 v70,2013-08-14 08:00:00,
2013-08-14 04:05:00,90.0,78.4,28.71,NW,315,15.0,17.0,69,0.00,,,0.00,Weather View 32 v70,2013-08-14 08:05:00,
2013-08-14 04:10:00,90.0,78.4,28.71,NW,315,11.0,17.0,69,0.00,,,0.00,Weather View 32 v70,2013-08-14 08:10:00,
2013-08-14 04:15:00,90.0,78.4,28.71,NW,315,9.0,17.0,69,0.00,,,0.00,Weather View 32 v70,2013-08-14 08:15:00,
2013-08-14 04:20:00,90.0,78.4,28.70,WNW,292,13.0,17.0,69,0.00,,,0.00,Weather View 32 v70,2013-08-14 08:20:00,
2013-08-14 04:25:00,90.0,78.4,28.70,NW,315,10.0,17.0,69,0.00,,,0.00,Weather View 32 v70,2013-08-14 08:25:00,
2013-08-14 04:30:00,90.0,78.4,28.70,West,270,9.0,18.0,69,0.00,,,0.00,Weather View 32 v70,2013-08-14 08:30:00,
2013-08-14 04:35:00,90.0,79.7,28.70,NW,315,12.0,18.0,72,0.00,,,0.00,Weather View 32 v70,2013-08-14 08:35:00,
2013-08-14 04:45:00,90.0,78.8,28.70,NW,315,11.0,18.0,70,0.00,,,0.00,Weather View 32 v70,2013-08-14 08:45:00,
2013-08-14 04:50:00,90.0,77.5,28.71,NW,315,15.0,18.0,67,0.00,,,0.00,Weather View 32 v70,2013-08-14 08:50:00,
2013-08-14 04:55:00,90.0,77.1,28.71,NW,315,13.0,18.0,66,0.00,,,0.00,Weather View 32 v70,2013-08-14 08:55:00,
2013-08-14 05:00:00,90.0,78.4,28.71,WNW,292,7.0,18.0,69,0.00,,,0.00,Weather View 32 v70,2013-08-14 09:00:00,
2013-08-14 05:05:00,90.0,77.1,28.71,NW,315,13.0,23.0,66,0.00,,,0.00,Weather View 32 v70,2013-08-14 09:05:00,
2013-08-14 05:15:00,90.0,75.6,28.71,NW,315,20.0,23.0,63,0.00,,,0.00,Weather View 32 v70,2013-08-14 09:15:00,
2013-08-14 05:20:00,90.0,76.1,28.71,WNW,292,14.0,23.0,64,0.00,,,0.00,Weather View 32 v70,2013-08-14 09:20:00,
2013-08-14 05:25:00,90.0,76.6,28.71,NW,315,10.0,23.0,65,0.00,,,0.00,Weather View 32 v70,2013-08-14 09:25:00,
2013-08-14 05:30:00,90.0,77.1,28.71,WNW,292,9.0,23.0,66,0.00,,,0.00,Weather View 32 v70,2013-08-14 09:30:00,
2013-08-14 05:35:00,90.0,78.0,28.71,WNW,292,7.0,23.0,68,0.00,,,0.00,Weather View 32 v70,2013-08-14 09:35:00,
2013-08-14 05:40:00,90.0,78.0,28.71,NW,315,11.0,23.0,68,0.00,,,0.00,Weather View 32 v70,2013-08-14 09:40:00,
2013-08-14 05:45:00,90.0,78.0,28.71,WNW,292,9.0,23.0,68,0.00,,,0.00,Weather View 32 v70,2013-08-14 09:45:00,
2013-08-14 05:55:00,90.0,77.5,28.71,West,270,15.0,23.0,67,0.00,,,0.00,Weather View 32 v70,2013-08-14 09:55:00,
2013-08-14 06:00:00,90.0,78.4,28.71,NW,315,12.0,23.0,69,0.00,,,0.00,Weather View 32 v70,2013-08-14 10:00:00,
2013-08-14 06:05:00,90.0,78.0,28.72,WNW,292,8.0,23.0,68,0.00,,,0.00,Weather View 32 v70,2013-08-14 10:05:00,
2013-08-14 06:10:00,90.0,78.4,28.72,WNW,292,8.0,23.0,69,0.00,,,0.00,Weather View 32 v70,2013-08-14 10:10:00,
2013-08-14 06:15:00,90.0,79.7,28.72,WNW,292,6.0,23.0,72,0.00,,,0.00,Weather View 32 v70,2013-08-14 10:15:00,
2013-08-14 06:20:00,90.0,78.4,28.72,NW,315,7.0,20.0,69,0.00,,,0.00,Weather View 32 v70,2013-08-14 10:20:00,
2013-08-14 06:30:00,89.0,78.3,28.72,West,270,12.0,20.0,71,0.00,,,0.00,Weather View 32 v70,2013-08-14 10:30:00,
2013-08-14 06:35:00,89.0,78.3,28.73,NW,315,11.0,22.0,71,0.00,,,0.00,Weather View 32 v70,2013-08-14 10:35:00,
2013-08-14 06:40:00,89.0,78.3,28.73,NW,315,8.0,22.0,71,0.00,,,0.00,Weather View 32 v70,2013-08-14 10:40:00,
2013-08-14 06:45:00,89.0,78.3,28.74,West,270,11.0,22.0,71,0.00,,,0.00,Weather View 32 v70,2013-08-14 10:45:00,
2013-08-14 06:50:00,89.0,78.3,28.74,NW,315,7.0,22.0,71,0.00,,,0.00,Weather View 32 v70,2013-08-14 10:50:00,
2013-08-14 06:55:00,89.0,78.3,28.74,WNW,292,7.0,22.0,71,0.00,,,0.00,Weather View 32 v70,2013-08-14 10:55:00,
2013-08-14 07:00:00,90.0,78.8,28.74,West,270,3.0,22.0,70,0.00,,,0.00,Weather View 32 v70,2013-08-14 11:00:00,
2013-08-14 07:10:00,90.0,80.1,28.74,WNW,292,6.0,22.0,73,0.00,,,0.00,Weather View 32 v70,2013-08-14 11:10:00,
2013-08-14 07:15:00,90.0,79.3,28.75,WNW,292,5.0,22.0,71,0.00,,,0.00,Weather View 32 v70,2013-08-14 11:15:00,
2013-08-14 07:20:00,90.0,79.3,28.75,WNW,292,5.0,22.0,71,0.00,,,0.00,Weather View 32 v70,2013-08-14 11:20:00,
2013-08-14 07:30:00,90.0,79.7,28.75,West,270,5.0,22.0,72,0.00,,,0.00,Weather View 32 v70,2013-08-14 11:30:00,
2013-08-14 07:40:00,90.0,80.5,28.75,West,270,5.0,19.0,74,0.00,,,0.00,Weather View 32 v70,2013-08-14 11:40:00,
2013-08-14 07:45:00,90.0,80.5,28.75,WNW,292,3.0,15.0,74,0.00,,,0.00,Weather View 32 v70,2013-08-14 11:45:00,
2013-08-14 07:50:00,90.0,80.5,28.75,West,270,9.0,14.0,74,0.00,,,0.00,Weather View 32 v70,2013-08-14 11:50:00,
2013-08-14 07:55:00,90.0,80.5,28.75,WNW,292,7.0,14.0,74,0.00,,,0.00,Weather View 32 v70,2013-08-14 11:55:00,
2013-08-14 08:00:00,90.0,80.1,28.75,NW,315,7.0,13.0,73,0.00,,,0.00,Weather View 32 v70,2013-08-14 12:00:00,
2013-08-14 08:05:00,90.0,80.1,28.75,WNW,292,6.0,13.0,73,0.00,,,0.00,Weather View 32 v70,2013-08-14 12:05:00,
2013-08-14 08:10:00,90.0,80.1,28.75,WNW,292,8.0,17.0,73,0.00,,,0.00,Weather View 32 v70,2013-08-14 12:10:00,
2013-08-14 08:15:00,90.0,80.1,28.75,NW,315,9.0,17.0,73,0.00,,,0.00,Weather View 32 v70,2013-08-14 12:15:00,
2013-08-14 08:20:00,90.0,81.4,28.75,NW,315,10.0,17.0,76,0.00,,,0.00,Weather View 32 v70,2013-08-14 12:20:00,
2013-08-14 08:30:00,91.0,81.1,28.75,WNW,292,6.0,17.0,73,0.00,,,0.00,Weather View 32 v70,2013-08-14 12:30:00,
2013-08-14 08:35:00,91.0,81.1,28.75,NW,315,11.0,17.0,73,0.00,,,0.00,Weather View 32 v70,2013-08-14 12:35:00,
2013-08-14 08:40:00,91.0,81.1,28.76,NW,315,6.0,17.0,73,0.00,,,0.00,Weather View 32 v70,2013-08-14 12:40:00,
2013-08-14 08:45:00,91.0,80.2,28.76,West,270,4.0,17.0,71,0.00,,,0.00,Weather View 32 v70,2013-08-14 12:45:00,
2013-08-14 08:50:00,91.0,81.1,28.76,WNW,292,9.0,17.0,73,0.00,,,0.00,Weather View 32 v70,2013-08-14 12:50:00,
2013-08-14 08:55:00,91.0,81.1,28.76,NW,315,8.0,17.0,73,0.00,,,0.00,Weather View 32 v70,2013-08-14 12:55:00,
2013-08-14 09:05:00,91.0,79.8,28.76,NW,315,5.0,22.0,70,0.00,,,0.00,Weather View 32 v70,2013-08-14 13:05:00,
2013-08-14 09:10:00,91.0,79.4,28.76,WNW,292,9.0,22.0,69,0.00,,,0.00,Weather View 32 v70,2013-08-14 13:10:00,
2013-08-14 09:15:00,92.0,79.9,28.75,NW,315,12.0,22.0,68,0.00,,,0.00,Weather View 32 v70,2013-08-14 13:15:00,
2013-08-14 09:21:00,92.0,79.9,28.75,NW,315,12.0,22.0,68,0.00,,,0.00,Weather View 32 v70,2013-08-14 13:21:00,
2013-08-14 09:30:00,92.0,79.9,28.75,NW,315,11.0,22.0,68,0.00,,,0.00,Weather View 32 v70,2013-08-14 13:30:00,
2013-08-14 09:35:00,92.0,78.9,28.75,WNW,292,9.0,31.0,66,0.00,,,0.00,Weather View 32 v70,2013-08-14 13:35:00,
2013-08-14 09:40:00,92.0,78.9,28.76,NW,315,8.0,31.0,66,0.00,,,0.00,Weather View 32 v70,2013-08-14 13:40:00,
2013-08-14 09:45:00,92.0,78.9,28.76,NW,315,22.0,31.0,66,0.00,,,0.00,Weather View 32 v70,2013-08-14 13:45:00,
2013-08-14 09:50:00,92.0,78.9,28.75,West,270,11.0,31.0,66,0.00,,,0.00,Weather View 32 v70,2013-08-14 13:50:00,
2013-08-14 09:55:00,92.0,79.4,28.75,NW,315,9.0,31.0,67,0.00,,,0.00,Weather View 32 v70,2013-08-14 13:55:00,
2013-08-14 10:00:00,92.0,78.5,28.75,West,270,16.0,34.0,65,0.00,,,0.00,Weather View 32 v70,2013-08-14 14:00:00,
2013-08-14 10:10:00,92.0,78.5,28.75,NW,315,30.0,35.0,65,0.00,,,0.00,Weather View 32 v70,2013-08-14 14:10:00,
2013-08-14 10:15:00,93.0,79.9,28.75,NW,315,16.0,37.0,66,0.00,,,0.00,Weather View 32 v70,2013-08-14 14:15:00,
2013-08-14 10:20:00,93.0,79.9,28.75,West,270,14.0,37.0,66,0.00,,,0.00,Weather View 32 v70,2013-08-14 14:20:00,
2013-08-14 10:25:00,93.0,78.5,28.76,NW,315,12.0,37.0,63,0.00,,,0.00,Weather View 32 v70,2013-08-14 14:25:00,
2013-08-14 10:30:00,93.0,78.0,28.75,WNW,292,7.0,37.0,62,0.00,,,0.00,Weather View 32 v70,2013-08-14 14:30:00,
2013-08-14 10:35:00,93.0,78.5,28.75,WNW,292,10.0,37.0,63,0.00,,,0.00,Weather View 32 v70,2013-08-14 14:35:00,
2013-08-14 10:40:00,93.0,78.5,28.76,West,270,8.0,37.0,63,0.00,,,0.00,Weather View 32 v70,2013-08-14 14:40:00,
2013-08-14 10:45:00,93.0,78.5,28.77,NW,315,13.0,37.0,63,0.00,,,0.00,Weather View 32 v70,2013-08-14 14:45:00,
2013-08-14 10:50:00,93.0,78.5,28.78,WNW,292,11.0,37.0,63,0.00,,,0.00,Weather View 32 v70,2013-08-14 14:50:00,
2013-08-14 11:00:00,93.0,78.0,28.78,WNW,292,13.0,37.0,62,0.00,,,0.00,Weather View 32 v70,2013-08-14 15:00:00,
2013-08-14 11:07:00,93.0,78.0,28.78,WNW,292,13.0,37.0,62,0.00,,,0.00,Weather View 32 v70,2013-08-14 15:07:00,
2013-08-14 11:15:00,94.0,78.4,28.78,NW,315,17.0,36.0,61,0.00,,,0.00,Weather View 32 v70,2013-08-14 15:15:00,
2013-08-14 11:25:00,94.0,76.9,28.78,NW,315,15.0,36.0,58,0.00,,,0.00,Weather View 32 v70,2013-08-14 15:25:00,
2013-08-14 11:35:00,94.0,78.4,28.78,WNW,292,9.0,36.0,61,0.00,,,0.00,Weather View 32 v70,2013-08-14 15:35:00,
2013-08-14 11:40:00,94.0,77.9,28.78,NW,315,15.0,36.0,60,0.00,,,0.00,Weather View 32 v70,2013-08-14 15:40:00,
2013-08-14 11:45:00,94.0,78.9,28.78,NW,315,12.0,32.0,62,0.00,,,0.00,Weather View 32 v70,2013-08-14 15:45:00,
2013-08-14 11:50:00,94.0,78.9,28.79,WNW,292,10.0,32.0,62,0.00,,,0.00,Weather View 32 v70,2013-08-14 15:50:00,
2013-08-14 11:55:00,94.0,76.4,28.79,West,270,15.0,31.0,57,0.00,,,0.00,Weather View 32 v70,2013-08-14 15:55:00,
2013-08-14 12:00:00,94.0,76.9,28.79,NW,315,12.0,31.0,58,0.00,,,0.00,Weather View 32 v70,2013-08-14 16:00:00,
2013-08-14 12:05:00,94.0,78.4,28.79,NW,315,8.0,31.0,61,0.00,,,0.00,Weather View 32 v70,2013-08-14 16:05:00,
2013-08-14 12:15:00,94.0,76.9,28.79,NW,315,11.0,31.0,58,0.00,,,0.00,Weather View 32 v70,2013-08-14 16:15:00,
2013-08-14 12:25:00,95.0,78.3,28.79,NW,315,10.0,31.0,59,0.00,,,0.00,Weather View 32 v70,2013-08-14 16:25:00,
2013-08-14 12:35:00,95.0,77.3,28.79,NNW,337,7.0,26.0,57,0.00,,,0.00,Weather View 32 v70,2013-08-14 16:35:00,
2013-08-14 12:40:00,94.0,77.9,28.79,NW,315,9.0,26.0,60,0.00,,,0.00,Weather View 32 v70,2013-08-14 16:40:00,
2013-08-14 12:45:00,94.0,77.9,28.79,West,270,7.0,25.0,60,0.00,,,0.00,Weather View 32 v70,2013-08-14 16:45:00,
2013-08-14 12:50:00,94.0,77.4,28.80,WNW,292,9.0,25.0,59,0.00,,,0.00,Weather View 32 v70,2013-08-14 16:50:00,
2013-08-14 12:55:00,94.0,76.9,28.80,NW,315,13.0,25.0,58,0.00,,,0.00,Weather View 32 v70,2013-08-14 16:55:00,
2013-08-14 13:00:00,94.0,76.4,28.80,NW,315,23.0,28.0,57,0.00,,,0.00,Weather View 32 v70,2013-08-14 17:00:00,
2013-08-14 13:05:00,94.0,75.3,28.80,WNW,292,8.0,28.0,55,0.00,,,0.00,Weather View 32 v70,2013-08-14 17:05:00,
2013-08-14 13:15:00,94.0,75.8,28.79,NW,315,15.0,30.0,56,0.00,,,0.00,Weather View 32 v70,2013-08-14 17:15:00,
2013-08-14 13:20:00,94.0,77.4,28.80,NW,315,12.0,30.0,59,0.00,,,0.00,Weather View 32 v70,2013-08-14 17:20:00,
2013-08-14 13:30:00,95.0,75.7,28.79,WNW,292,21.0,30.0,54,0.00,,,0.00,Weather View 32 v70,2013-08-14 17:30:00,
2013-08-14 13:35:00,95.0,75.7,28.78,West,270,15.0,30.0,54,0.00,,,0.00,Weather View 32 v70,2013-08-14 17:35:00,
2013-08-14 13:40:00,94.0,76.9,28.79,WNW,292,8.0,30.0,58,0.00,,,0.00,Weather View 32 v70,2013-08-14 17:40:00,
2013-08-14 13:45:00,95.0,76.8,28.80,NW,315,22.0,30.0,56,0.00,,,0.00,Weather View 32 v70,2013-08-14 17:45:00,
2013-08-14 13:50:00,95.0,76.2,28.80,WNW,292,10.0,30.0,55,0.00,,,0.00,Weather View 32 v70,2013-08-14 17:50:00,
2013-08-14 14:00:00,95.0,75.7,28.79,WNW,292,15.0,30.0,54,0.00,,,0.00,Weather View 32 v70,2013-08-14 18:00:00,
2013-08-14 14:05:00,95.0,73.9,28.79,NW,315,20.0,32.0,51,0.00,,,0.00,Weather View 32 v70,2013-08-14 18:05:00,
2013-08-14 14:30:00,95.0,75.1,28.79,NW,315,13.0,32.0,53,0.00,,,0.00,Weather View 32 v70,2013-08-14 18:30:00,
2013-08-14 14:35:00,95.0,75.7,28.80,NW,315,14.0,32.0,54,0.00,,,0.00,Weather View 32 v70,2013-08-14 18:35:00,
2013-08-14 14:45:00,95.0,74.5,28.79,NW,315,15.0,32.0,52,0.00,,,0.00,Weather View 32 v70,2013-08-14 18:45:00,
2013-08-14 15:05:00,96.0,75.4,28.79,NW,315,16.0,32.0,52,0.00,,,0.00,Weather View 32 v70,2013-08-14 19:05:00,
2013-08-14 15:20:00,96.0,76.6,28.78,NW,315,13.0,30.0,54,0.00,,,0.00,Weather View 32 v70,2013-08-14 19:20:00,
2013-08-14 15:35:00,96.0,74.3,28.78,NW,315,16.0,30.0,50,0.00,,,0.00,Weather View 32 v70,2013-08-14 19:35:00,
2013-08-14 15:50:00,96.0,73.0,28.78,NW,315,16.0,32.0,48,0.00,,,0.00,Weather View 32 v70,2013-08-14 19:50:00,
2013-08-14 15:55:00,96.0,73.7,28.78,WNW,292,20.0,32.0,49,0.00,,,0.00,Weather View 32 v70,2013-08-14 19:55:00,
2013-08-14 16:00:00,96.0,74.3,28.78,NW,315,9.0,32.0,50,0.00,,,0.00,Weather View 32 v70,2013-08-14 20:00:00,
2013-08-14 16:09:00,96.0,74.3,28.78,NW,315,15.0,32.0,50,0.00,,,0.00,Weather View 32 v70,2013-08-14 20:09:00,
2013-08-14 16:15:00,96.0,75.4,28.78,NNW,337,4.0,32.0,52,0.00,,,0.00,Weather View 32 v70,2013-08-14 20:15:00,
2013-08-14 16:30:00,96.0,73.7,28.79,NW,315,19.0,32.0,49,0.00,,,0.00,Weather View 32 v70,2013-08-14 20:30:00,
2013-08-14 16:40:00,97.0,74.0,28.78,NW,315,19.0,30.0,48,0.00,,,0.00,Weather View 32 v70,2013-08-14 20:40:00,
2013-08-14 16:50:00,96.0,73.7,28.79,WNW,292,19.0,30.0,49,0.00,,,0.00,Weather View 32 v70,2013-08-14 20:50:00,
2013-08-14 17:00:00,96.0,74.3,28.79,WNW,292,15.0,30.0,50,0.00,,,0.00,Weather View 32 v70,2013-08-14 21:00:00,
2013-08-14 17:05:00,96.0,74.9,28.78,NW,315,12.0,30.0,51,0.00,,,0.00,Weather View 32 v70,2013-08-14 21:05:00,
2013-08-14 17:10:00,96.0,76.0,28.79,NW,315,8.0,30.0,53,0.00,,,0.00,Weather View 32 v70,2013-08-14 21:10:00,
2013-08-14 17:20:00,96.0,74.3,28.79,NW,315,7.0,30.0,50,0.00,,,0.00,Weather View 32 v70,2013-08-14 21:20:00,
2013-08-14 17:25:00,97.0,76.9,28.79,NW,315,9.0,28.0,53,0.00,,,0.00,Weather View 32 v70,2013-08-14 21:25:00,
2013-08-14 17:30:00,97.0,73.3,28.79,NW,315,13.0,28.0,47,0.00,,,0.00,Weather View 32 v70,2013-08-14 21:30:00,
2013-08-14 17:40:00,97.0,73.3,28.79,WNW,292,8.0,25.0,47,0.00,,,0.00,Weather View 32 v70,2013-08-14 21:40:00,
2013-08-14 17:50:00,97.0,75.2,28.79,WNW,292,15.0,24.0,50,0.00,,,0.00,Weather View 32 v70,2013-08-14 21:50:00,
2013-08-14 17:55:00,96.0,73.7,28.79,NW,315,9.0,24.0,49,0.00,,,0.00,Weather View 32 v70,2013-08-14 21:55:00,
2013-08-14 18:00:00,96.0,75.4,28.80,NW,315,17.0,24.0,52,0.00,,,0.00,Weather View 32 v70,2013-08-14 22:00:00,
2013-08-14 18:05:00,96.0,74.9,28.80,NW,315,17.0,24.0,51,0.00,,,0.00,Weather View 32 v70,2013-08-14 22:05:00,
2013-08-14 18:10:00,96.0,74.3,28.80,WNW,292,12.0,22.0,50,0.00,,,0.00,Weather View 32 v70,2013-08-14 22:10:00,
2013-08-14 18:15:00,96.0,73.7,28.80,NW,315,6.0,22.0,49,0.00,,,0.00,Weather View 32 v70,2013-08-14 22:15:00,
2013-08-14 18:25:00,96.0,73.0,28.79,West,270,6.0,22.0,48,0.00,,,0.00,Weather View 32 v70,2013-08-14 22:25:00,
2013-08-14 18:30:00,96.0,75.4,28.79,NW,315,12.0,22.0,52,0.00,,,0.00,Weather View 32 v70,2013-08-14 22:30:00,
2013-08-14 18:35:00,96.0,75.4,28.80,WNW,292,7.0,22.0,52,0.00,,,0.00,Weather View 32 v70,2013-08-14 22:35:00,
2013-08-14 18:45:00,96.0,75.4,28.80,NW,315,13.0,22.0,52,0.00,,,0.00,Weather View 32 v70,2013-08-14 22:45:00,
2013-08-14 18:50:00,96.0,74.9,28.79,WNW,292,11.0,22.0,51,0.00,,,0.00,Weather View 32 v70,2013-08-14 22:50:00,
2013-08-14 18:55:00,96.0,77.1,28.79,NW,315,19.0,22.0,55,0.00,,,0.00,Weather View 32 v70,2013-08-14 22:55:00,
2013-08-14 19:00:00,96.0,74.3,28.80,NW,315,15.0,22.0,50,0.00,,,0.00,Weather View 32 v70,2013-08-14 23:00:00,
2013-08-14 19:10:00,96.0,74.9,28.79,NW,315,9.0,23.0,51,0.00,,,0.00,Weather View 32 v70,2013-08-14 23:10:00,
2013-08-14 19:20:00,96.0,77.1,28.80,West,270,6.0,23.0,55,0.00,,,0.00,Weather View 32 v70,2013-08-14 23:20:00,
2013-08-14 19:25:00,95.0,75.7,28.80,WNW,292,11.0,23.0,54,0.00,,,0.00,Weather View 32 v70,2013-08-14 23:25:00,
2013-08-14 19:30:00,95.0,76.2,28.80,NW,315,10.0,23.0,55,0.00,,,0.00,Weather View 32 v70,2013-08-14 23:30:00,
2013-08-14 19:35:00,95.0,77.3,28.81,WNW,292,6.0,23.0,57,0.00,,,0.00,Weather View 32 v70,2013-08-14 23:35:00,
2013-08-14 19:40:00,95.0,76.8,28.81,WNW,292,8.0,23.0,56,0.00,,,0.00,Weather View 32 v70,2013-08-14 23:40:00,
2013-08-14 19:45:00,95.0,77.3,28.81,NW,315,10.0,23.0,57,0.00,,,0.00,Weather View 32 v70,2013-08-14 23:45:00,
2013-08-14 19:50:00,95.0,77.3,28.81,WNW,292,14.0,23.0,57,0.00,,,0.00,Weather View 32 v70,2013-08-14 23:50:00,
2013-08-14 19:55:00,94.0,76.9,28.81,NW,315,11.0,23.0,58,0.00,,,0.00,Weather View 32 v70,2013-08-14 23:55:00,
2013-08-14 20:00:00,94.0,78.4,28.82,WNW,292,12.0,23.0,61,0.00,,,0.00,Weather View 32 v70,2013-08-15 00:00:00,
2013-08-14 20:05:00,94.0,77.4,28.82,WNW,292,10.0,19.0,59,0.00,,,0.00,Weather View 32 v70,2013-08-15 00:05:00,
2013-08-14 20:12:00,94.0,77.9,28.83,NW,315,10.0,19.0,60,0.00,,,0.00,Weather View 32 v70,2013-08-15 00:12:00,
2013-08-14 20:20:00,94.0,78.9,28.83,WNW,292,8.0,17.0,62,0.00,,,0.00,Weather View 32 v70,2013-08-15 00:20:00,
2013-08-14 20:25:00,94.0,78.9,28.83,WNW,292,8.0,17.0,62,0.00,,,0.00,Weather View 32 v70,2013-08-15 00:25:00,
2013-08-14 20:30:00,94.0,78.4,28.83,NW,315,9.0,17.0,61,0.00,,,0.00,Weather View 32 v70,2013-08-15 00:30:00,
2013-08-14 20:35:00,94.0,78.9,28.83,WNW,292,6.0,17.0,62,0.00,,,0.00,Weather View 32 v70,2013-08-15 00:35:00,
2013-08-14 20:45:00,94.0,77.4,28.84,WNW,292,6.0,17.0,59,0.00,,,0.00,Weather View 32 v70,2013-08-15 00:45:00,
2013-08-14 20:50:00,94.0,77.9,28.84,WNW,292,6.0,17.0,60,0.00,,,0.00,Weather View 32 v70,2013-08-15 00:50:00,
2013-08-14 21:00:00,94.0,78.4,28.84,WNW,292,8.0,17.0,61,0.00,,,0.00,Weather View 32 v70,2013-08-15 01:00:00,
2013-08-14 21:10:00,94.0,78.4,28.85,NW,315,7.0,15.0,61,0.00,,,0.00,Weather View 32 v70,2013-08-15 01:10:00,
2013-08-14 21:15:00,94.0,78.4,28.85,WNW,292,10.0,15.0,61,0.00,,,0.00,Weather View 32 v70,2013-08-15 01:15:00,
2013-08-14 21:20:00,94.0,78.4,28.85,West,270,9.0,15.0,61,0.00,,,0.00,Weather View 32 v70,2013-08-15 01:20:00,
2013-08-14 21:25:00,94.0,78.9,28.85,WNW,292,8.0,15.0,62,0.00,,,0.00,Weather View 32 v70,2013-08-15 01:25:00,
2013-08-14 21:30:00,94.0,78.9,28.85,WNW,292,12.0,15.0,62,0.00,,,0.00,Weather View 32 v70,2013-08-15 01:30:00,
2013-08-14 21:40:00,94.0,79.4,28.85,WNW,292,7.0,15.0,63,0.00,,,0.00,Weather View 32 v70,2013-08-15 01:40:00,
2013-08-14 21:45:00,93.0,78.5,28.85,WNW,292,7.0,15.0,63,0.00,,,0.00,Weather View 32 v70,2013-08-15 01:45:00,
2013-08-14 21:55:00,94.0,78.4,28.86,WNW,292,11.0,16.0,61,0.00,,,0.00,Weather View 32 v70,2013-08-15 01:55:00,
2013-08-14 22:05:00,94.0,78.9,28.86,WNW,292,9.0,16.0,62,0.00,,,0.00,Weather View 32 v70,2013-08-15 02:05:00,
2013-08-14 22:10:00,94.0,78.9,28.86,WNW,292,8.0,16.0,62,0.00,,,0.00,Weather View 32 v70,2013-08-15 02:10:00,
2013-08-14 22:15:00,94.0,78.4,28.86,WNW,292,6.0,17.0,61,0.00,,,0.00,Weather View 32 v70,2013-08-15 02:15:00,
2013-08-14 22:20:00,93.0,78.5,28.86,West,270,7.0,17.0,63,0.00,,,0.00,Weather View 32 v70,2013-08-15 02:20:00,
2013-08-14 22:25:00,94.0,79.4,28.87,WNW,292,8.0,17.0,63,0.00,,,0.00,Weather View 32 v70,2013-08-15 02:25:00,
2013-08-14 22:30:00,94.0,79.4,28.87,NW,315,7.0,17.0,63,0.00,,,0.00,Weather View 32 v70,2013-08-15 02:30:00,
2013-08-14 22:35:00,93.0,79.4,28.87,WNW,292,10.0,17.0,65,0.00,,,0.00,Weather View 32 v70,2013-08-15 02:35:00,
2013-08-14 22:40:00,93.0,79.4,28.88,NW,315,3.0,17.0,65,0.00,,,0.00,Weather View 32 v70,2013-08-15 02:40:00,
2013-08-14 22:50:00,93.0,79.4,28.87,West,270,11.0,18.0,65,0.00,,,0.00,Weather View 32 v70,2013-08-15 02:50:00,
2013-08-14 22:55:00,93.0,79.0,28.87,NW,315,9.0,18.0,64,0.00,,,0.00,Weather View 32 v70,2013-08-15 02:55:00,
2013-08-14 23:00:00,93.0,79.4,28.88,WNW,292,7.0,18.0,65,0.00,,,0.00,Weather View 32 v70,2013-08-15 03:00:00,
2013-08-14 23:05:00,93.0,79.4,28.87,West,270,10.0,18.0,65,0.00,,,0.00,Weather View 32 v70,2013-08-15 03:05:00,
2013-08-14 23:10:00,93.0,79.9,28.87,WNW,292,6.0,18.0,66,0.00,,,0.00,Weather View 32 v70,2013-08-15 03:10:00,
2013-08-14 23:15:00,93.0,79.4,28.87,West,270,9.0,18.0,65,0.00,,,0.00,Weather View 32 v70,2013-08-15 03:15:00,
2013-08-14 23:20:00,93.0,78.5,28.88,NW,315,10.0,18.0,63,0.00,,,0.00,Weather View 32 v70,2013-08-15 03:20:00,
2013-08-14 23:25:00,93.0,78.5,28.88,NW,315,9.0,18.0,63,0.00,,,0.00,Weather View 32 v70,2013-08-15 03:25:00,
2013-08-14 23:30:00,93.0,79.0,28.88,WNW,292,11.0,18.0,64,0.00,,,0.00,Weather View 32 v70,2013-08-15 03:30:00,
2013-08-14 23:40:00,93.0,78.5,28.89,NW,315,11.0,19.0,63,0.00,,,0.00,Weather View 32 v70,2013-08-15 03:40:00,
2013-08-14 23:45:00,93.0,79.0,28.89,West,270,7.0,19.0,64,0.00,,,0.00,Weather View 32 v70,2013-08-15 03:45:00,
2013-08-14 23:55:00,93.0,79.0,28.89,NW,315,10.0,19.0,64,0.00,,,0.00,Weather View 32 v70,2013-08-15 03:55:00,